CW3468 Weather Reports


time (UTC)temp
C
wind
direction
speed
KPH
gust
KPH
rain 1hr
cm
rain 24hr
cm
rain mn
cm
humidity
%
barometer
mb
20260510060613 22 150 0.0 1.6 0.00 0.08 0.00 83 1012.7
20260510055631 22 171 0.0 0.0 0.00 0.08 0.00 83 1012.7
20260510054648 22 192 0.0 0.0 0.00 0.08 0.00 82 1012.5
20260510053624 22 173 0.0 3.2 0.00 0.08 0.00 82 1012.7
20260510052620 22 154 0.0 3.2 0.00 0.08 0.00 82 1012.7
20260510051634 23 146 0.0 3.2 0.00 0.08 0.00 83 1012.7
20260510050630 23 187 0.0 4.8 0.00 0.08 0.00 83 1012.7
20260510045624 23 157 0.0 3.2 0.00 0.08 0.08 84 1012.6
20260510044642 23 173 0.0 0.0 0.00 0.08 0.08 84 1012.5
20260510043617 23 173 0.0 0.0 0.00 0.08 0.08 83 1012.5
20260510042634 23 173 0.0 0.0 0.00 0.08 0.08 82 1012.5
20260510041631 23 173 0.0 0.0 0.00 0.08 0.08 82 1012.5
20260510040650 23 157 0.0 0.0 0.00 0.08 0.08 82 1012.4
20260510035627 23 174 0.0 0.0 0.00 0.08 0.08 82 1012.3
20260510034624 23 169 0.0 0.0 0.00 0.08 0.08 82 1012.3
20260510033641 24 167 0.0 0.0 0.00 0.08 0.08 83 1012.2
20260510032615 24 156 0.0 0.0 0.00 0.08 0.08 83 1012.1
20260510031653 25 156 0.0 0.0 0.00 0.08 0.08 82 1012.0
20260510030628 25 156 0.0 3.2 0.00 0.08 0.08 80 1011.9
20260510025626 25 166 0.0 3.2 0.00 0.08 0.08 80 1011.7
20260510024621 25 157 0.0 3.2 0.00 0.08 0.08 79 1011.5
20260510023617 26 128 0.0 4.8 0.00 0.08 0.08 79 1011.4
20260510022613 26 157 1.6 3.2 0.00 0.08 0.08 79 1011.3
20260510021631 26 130 1.6 3.2 0.00 0.08 0.08 77 1011.2
20260510020612 26 140 0.0 3.2 0.00 0.08 0.08 76 1011.1
20260510015629 26 126 1.6 4.8 0.00 0.08 0.08 75 1011.0
20260510014626 27 140 1.6 4.8 0.00 0.08 0.08 74 1010.9
20260510013622 27 119 0.0 3.2 0.00 0.08 0.08 73 1010.8
20260510012617 27 134 0.0 3.2 0.00 0.08 0.08 71 1010.8
20260510011633 27 126 0.0 3.2 0.00 0.08 0.08 71 1010.6
20260510010629 28 119 1.6 4.8 0.00 0.08 0.08 68 1010.6
20260510005625 28 109 1.6 6.4 0.00 0.08 0.08 67 1010.5
20260510004623 28 126 1.6 8.0 0.00 0.08 0.08 66 1010.5
20260510003619 29 128 0.0 4.8 0.00 0.08 0.08 62 1010.4
20260510002615 29 149 0.0 4.8 0.00 0.08 0.08 60 1010.3
20260510001611 30 141 0.0 4.8 0.00 0.08 0.08 58 1010.2
20260510000630 29 99 0.0 6.4 0.00 0.08 0.08 57 1010.1
20260509235626 29 72 1.6 9.7 0.00 0.08 0.08 56 1010.0
20260509234619 30 100 1.6 4.8 0.00 0.08 0.08 53 1009.9
20260509233617 30 94 1.6 3.2 0.00 0.08 0.08 49 1009.8
20260509232612 30 136 3.2 6.4 0.00 0.08 0.08 47 1009.9
20260509231629 30 119 1.6 11.3 0.00 0.08 0.08 50 1009.7
20260509230626 30 120 1.6 8.0 0.00 0.08 0.08 56 1009.8
20260509225626 30 159 1.6 6.4 0.00 0.08 0.08 54 1009.8
20260509224621 31 142 1.6 9.7 0.00 0.08 0.08 54 1009.7
20260509223619 31 106 1.6 6.4 0.00 0.08 0.08 53 1009.6
20260509222637 31 173 0.0 1.6 0.00 0.08 0.08 52 1009.6
20260509221611 31 233 0.0 3.2 0.00 0.08 0.08 55 1009.6
20260509220631 30 216 0.0 3.2 0.00 0.08 0.08 60 1009.6
20260509215627 29 177 1.6 3.2 0.00 0.08 0.08 59 1009.6
20260509214621 29 144 0.0 3.2 0.00 0.08 0.08 61 1009.7
20260509213617 29 108 1.6 6.4 0.00 0.08 0.08 61 1009.8
20260509212612 28 220 1.6 6.4 0.00 0.08 0.08 63 1010.0
20260509211650 27 200 4.8 12.9 0.00 0.08 0.08 64 1010.3
20260509210626 27 130 3.2 17.7 0.00 0.08 0.08 60 1010.5
20260509205625 26 165 8.0 20.9 0.00 0.08 0.08 62 1010.7
20260509204622 26 103 9.7 33.8 0.00 0.08 0.08 56 1010.8
20260509203617 28 112 4.8 33.8 0.00 0.08 0.08 53 1010.9
20260509202616 31 5 1.6 3.2 0.00 0.08 0.08 54 1010.7
20260509201612 31 109 0.0 3.2 0.00 0.08 0.08 53 1010.5
20260509200627 33 254 1.6 11.3 0.00 0.08 0.08 50 1010.6
20260509195624 33 234 1.6 4.8 0.00 0.08 0.08 53 1010.7
20260509194623 31 254 0.0 6.4 0.00 0.08 0.08 58 1010.7
20260509193620 31 325 1.6 4.8 0.00 0.08 0.08 56 1010.9
20260509192617 32 197 1.6 8.0 0.00 0.08 0.08 55 1011.1
20260509191615 33 265 3.2 9.7 0.00 0.08 0.08 54 1011.0
20260509190632 32 309 1.6 6.4 0.00 0.08 0.08 56 1011.2
20260509185630 31 218 1.6 4.8 0.00 0.08 0.08 60 1011.3
20260509184625 31 191 0.0 3.2 0.00 0.08 0.08 58 1011.5
20260509183622 32 181 1.6 4.8 0.00 0.08 0.08 58 1011.8
20260509182617 30 240 0.0 3.2 0.00 0.08 0.08 63 1012.0
20260509181615 31 211 3.2 8.0 0.00 0.08 0.08 65 1012.1
20260509180612 31 299 0.0 4.8 0.00 0.08 0.08 64 1012.1
20260509175650 31 257 3.2 8.0 0.00 0.08 0.08 62 1012.2
20260509174646 30 119 0.0 9.7 0.00 0.08 0.08 66 1012.4
20260509173623 31 187 1.6 6.4 0.00 0.08 0.08 68 1012.6
20260509172620 30 211 3.2 8.0 0.00 0.08 0.08 66 1012.8
20260509171617 30 111 1.6 3.2 0.00 0.08 0.08 66 1012.6
20260509170635 30 132 1.6 9.7 0.00 0.08 0.08 69 1012.7
20260509165630 30 274 1.6 6.4 0.00 0.08 0.08 68 1012.9
20260509164628 29 198 1.6 4.8 0.00 0.08 0.08 72 1012.8
20260509163624 28 194 1.6 3.2 0.00 0.08 0.08 74 1012.8
20260509162626 28 205 0.0 4.8 0.00 0.08 0.08 76 1012.8
20260509161623 28 192 0.0 4.8 0.00 0.08 0.08 77 1012.7
20260509160619 27 208 1.6 8.0 0.00 0.08 0.08 79 1012.7
20260509155615 27 203 3.2 4.8 0.00 0.08 0.08 81 1012.6
20260509154612 26 208 1.6 9.7 0.00 0.08 0.08 84 1012.8
20260509153631 25 180 1.6 8.0 0.00 0.08 0.08 91 1012.8
20260509152626 25 238 0.0 6.4 0.00 0.08 0.08 94 1013.0
20260509151622 24 198 1.6 6.4 0.00 0.08 0.08 95 1012.9
20260509150617 23 136 1.6 4.8 0.00 0.08 0.08 95 1013.1
20260509145634 22 158 1.6 6.4 0.00 0.08 0.08 95 1012.9
20260509144612 22 247 0.0 4.8 0.00 0.08 0.08 95 1012.6
20260509143630 22 211 0.0 3.2 0.00 0.08 0.08 95 1012.5
20260509142628 22 177 1.6 8.0 0.00 0.08 0.08 95 1012.4
20260509141624 22 153 0.0 3.2 0.00 0.08 0.08 95 1012.3
20260509140621 22 165 1.6 4.8 0.00 0.08 0.08 95 1012.3
20260509135619 22 137 0.0 1.6 0.00 0.08 0.08 95 1012.6
20260509134620 22 64 0.0 0.0 0.00 0.08 0.08 95 1012.6
20260509133616 22 84 0.0 0.0 0.00 0.08 0.08 95 1012.7
20260509132613 22 10 0.0 0.0 0.00 0.08 0.08 95 1012.8
20260509131631 22 311 0.0 0.0 0.00 0.08 0.08 95 1012.7
20260509130628 22 55 0.0 0.0 0.00 0.08 0.08 95 1012.7
20260509125624 22 98 0.0 3.2 0.00 0.08 0.08 95 1012.2
20260509124621 22 336 0.0 4.8 0.00 0.08 0.08 95 1012.0
20260509123618 22 360 1.6 4.8 0.00 0.08 0.08 95 1012.2
20260509122614 22 45 0.0 0.0 0.00 0.08 0.08 95 1012.1
20260509121651 22 100 0.0 0.0 0.00 0.08 0.08 95 1012.2
20260509120627 22 355 0.0 3.2 0.00 0.08 0.08 95 1012.5
20260509115623 22 25 0.0 1.6 0.00 0.08 0.08 95 1012.4
20260509114638 22 34 1.6 4.8 0.00 0.08 0.08 95 1012.2
20260509113614 22 314 1.6 4.8 0.00 0.08 0.08 95 1012.6
20260509112612 22 23 0.0 0.0 0.00 0.08 0.08 95 1013.0
20260509111629 22 333 0.0 4.8 0.00 0.08 0.08 95 1013.1
20260509110627 22 47 0.0 4.8 0.00 0.08 0.08 95 1013.1
20260509105621 22 19 0.0 3.2 0.00 0.08 0.08 95 1013.2
20260509104617 22 24 0.0 3.2 0.00 0.08 0.08 95 1013.2
20260509103616 22 34 0.0 0.0 0.00 0.08 0.08 95 1013.1
20260509102613 22 39 0.0 0.0 0.03 0.08 0.08 95 1013.0
20260509101627 22 77 0.0 0.0 0.03 0.08 0.08 95 1012.6
20260509100624 22 77 0.0 0.0 0.03 0.08 0.08 95 1012.3
20260509095622 22 98 0.0 3.2 0.05 0.08 0.08 94 1012.0
20260509094615 22 80 1.6 3.2 0.08 0.08 0.08 94 1011.8
20260509093631 22 101 0.0 0.0 0.08 0.08 0.08 94 1012.0
20260509092628 22 92 0.0 0.0 0.05 0.05 0.05 94 1012.0
20260509091626 22 82 0.0 3.2 0.05 0.05 0.05 94 1011.8
20260509090623 22 97 0.0 0.0 0.05 0.05 0.05 94 1011.7
20260509085642 22 121 0.0 3.2 0.03 0.03 0.03 94 1011.8
20260509084617 22 39 0.0 0.0 0.00 0.00 0.00 94 1012.0
20260509083614 22 39 0.0 0.0 0.00 0.00 0.00 93 1012.0
20260509082631 22 45 0.0 1.6 0.00 0.00 0.00 93 1012.1
20260509081628 22 44 0.0 0.0 0.00 0.00 0.00 93 1012.0
20260509080625 22 118 0.0 0.0 0.00 0.00 0.00 93 1012.1
20260509075621 22 113 0.0 4.8 0.00 0.00 0.00 92 1011.8
20260509074620 22 142 0.0 3.2 0.00 0.00 0.00 92 1011.9
20260509073621 22 89 0.0 3.2 0.00 0.00 0.00 92 1011.9
20260509072619 22 169 0.0 0.0 0.00 0.00 0.00 92 1012.0
20260509071616 22 157 0.0 0.0 0.00 0.00 0.00 92 1012.1
20260509070613 22 161 0.0 3.2 0.00 0.00 0.00 92 1012.2
20260509065630 22 202 0.0 3.2 0.00 0.00 0.00 92 1012.3
20260509064627 22 200 0.0 3.2 0.00 0.00 0.00 92 1012.1
20260509063644 22 185 0.0 4.8 0.00 0.00 0.00 92 1011.9
20260509062641 22 165 1.6 8.0 0.00 0.00 0.00 91 1011.7
20260509061616 22 213 0.0 4.8 0.00 0.00 0.00 91 1011.8